www.pogodaiklimat.ru

Погода и климат >> Архив погоды >> Япония >> Чичибу


ПОГОДА в Чичибу

  • Прогноз погоды в Чичибу
  • Монитор погоды в Чичибу

АРХИВ ПОГОДЫ в Чичибу

Время (UTC), дата Ветер
(напр.,м/с)
 
Видим.   Явления Облачность Т
(С)
Тd
(С)
f
(%)
Тe
(С)
Тes
(С)
Комфортность P
(гПа)
Po
(гПа)
Тmin
(С)
Tmax
(С)
R
(мм)
R24
(мм)
S
(см)
06 19.08 В 5 13 км {дождь} н/о +29.7 +23.4 69 +40 +40 очень
душно
1010.1 984.2 0.0
09 19.08 СВ 2 11 км слаб. дождь н/о +26.7 +24.6 88 +38 +38 очень
душно
1010.5 984.3
10 19.08 ЮВ 1 2600 м дождь н/о +25.2 +24.7 97 +35 +35 очень
душно
1011.8 985.4
11 19.08 С 2 3600 м дождь н/о +24.8 +24.6 99 +35 +35 очень
душно
1012.2 985.8
12 19.08 С 2 2700 м дождь н/о +24.5 +24.5 100 +34 +34 очень
душно
1012.4 985.9 +31.0 20
13 19.08 СЗ 1 2600 м дождь н/о +24.3 +24.3 100 +34 +34 очень
душно
1012.8 986.3
14 19.08 СЗ 1 500 м сильн. дождь н/о +23.5 +23.5 100 +32 +32 очень
душно
1013.1 986.5
15 19.08 С 3 16 км слаб. дождь н/о +23.8 +23.8 100 +32 +32 очень
душно
1012.0 985.5
16 19.08 С 1 6000 м слаб. дождь н/о +23.7 +23.7 100 +32 +32 очень
душно
1012.4 985.8
17 19.08 СЗ 1 5000 м слаб. дождь н/о +23.7 +23.7 100 +32 +32 очень
душно
1012.2 985.7
18 19.08 С 2 4100 м слаб. дождь н/о +23.3 +23.3 100 +33 +33 очень
душно
1012.3 985.7 48
19 19.08 С 2 3800 м слаб. дождь н/о +22.8 +22.8 100 +31 +31 очень
душно
1012.2 985.6
20 19.08 Ю 1 11 км слаб. дождь н/о +22.8 +22.8 100 +31 +31 очень
душно
1012.2 985.6
21 19.08 С 1 12 км в посл. час дождь н/о +22.8 +22.8 100 +31 +31 очень
душно
1012.1 985.5
22 19.08 С 1 1800 м слаб. дождь н/о +22.8 +22.8 100 +31 +31 очень
душно
1011.8 985.2
23 19.08 С 1 20 км в посл. час дождь н/о +23.2 +23.0 99 +32 +32 очень
душно
1011.8 985.2
00 20.08 С 2 20 км {дождь} н/о +23.9 +23.1 95 +32 +32 очень
душно
1011.6 985.1 +22.5 49
01 20.08 СЗ 1 20 км н/о +24.7 +23.1 91 +33 +33 очень
душно
1011.1 984.7
02 20.08 В 2 10 км слаб. дождь н/о +24.8 +23.4 92 +33 +33 очень
душно
1010.6 984.2
03 20.08 С 2 2700 м слаб. дождь н/о +24.6 +23.8 95 +33 +33 очень
душно
1010.1 983.7
04 20.08 З 1 5000 м в посл. час дождь н/о +24.9 +24.1 95 +34 +34 очень
душно
1009.6 983.2
05 20.08 СВ 1 12 км н/о +25.8 +24.4 92 +36 +36 очень
душно
1009.2 982.9
06 20.08 С 1 13 км {дождь} н/о +25.4 +23.6 90 +35 +35 очень
душно
1009.6 983.3 0.0
07 20.08 З 1 7000 м слаб. дождь н/о +25.1 +24.4 96 +35 +35 очень
душно
1009.3 983.0
08 20.08 СЗ 1 14 км в посл. час дождь н/о +25.4 +24.0 92 +35 +35 очень
душно
1008.7 982.4
09 20.08 СВ 2 14 км {дождь} н/о +25.3 +24.4 95 +35 +35 очень
душно
1009.0 982.7
10 20.08 Ю 1 8000 м слаб. дождь н/о +24.7 +24.5 99 +35 +35 очень
душно
1009.9 983.5
11 20.08 ЮЗ 1 8000 м в посл. час дождь н/о +24.1 +23.9 99 +33 +33 очень
душно
1010.3 983.8
12 20.08 З 1 4700 м дымка {дождь} н/о +23.8 +23.8 100 +32 +32 очень
душно
1010.6 984.1 +26.0 3
13 20.08 СЗ 1 6000 м дымка н/о +23.9 +23.9 100 +33 +33 очень
душно
1010.9 984.4
14 20.08 штиль 0 13 км в посл. час дождь н/о +24.0 +23.7 98 +33 +33 очень
душно
1010.7 984.2
15 20.08 ЮЗ 1 8000 м дымка {дождь} н/о +23.7 +23.7 100 +32 +32 очень
душно
1009.9 983.4
16 20.08 СВ 1 8000 м дымка н/о +23.7 +23.7 100 +32 +32 очень
душно
1009.6 983.1
17 20.08 В 1 8000 м дымка н/о +23.6 +23.6 100 +32 +32 очень
душно
1009.5 983.0
18 20.08 З 1 8000 м дымка {дождь} н/о +23.6 +23.6 100 +32 +32 очень
душно
1009.5 983.0 0.0
20 20.08 Ю 1 18 км н/о +22.9 +22.6 98 +31 +31 очень
душно
1009.5 982.9
22 20.08 З 1 20 км н/о +23.8 +22.8 94 +31 +31 очень
душно
1010.3 983.8
23 20.08 С 2 20 км н/о +25.4 +22.5 84 +33 +33 очень
душно
1010.3 984.0
00 21.08 В 2 20 км н/о +27.1 +22.5 76 +36 +36 очень
душно
1010.1 983.9 +22.6 0.0
01 21.08 С 2 20 км н/о +28.2 +24.2 79 +39 +39 очень
душно
1009.8 983.7
02 21.08 В 2 20 км слаб. дождь н/о +28.5 +24.1 77 +40 +40 очень
душно
1009.5 983.5
03 21.08 ЮЗ 1 20 км в посл. час дождь н/о +29.7 +24.3 73 +42 +42 опасность
перегрева
1008.6 982.7
05 21.08 В 4 20 км н/о +29.6 +23.8 71 +41 +41 опасность
перегрева
1007.6 981.7
06 21.08 В 4 20 км слаб. дождь н/о +28.4 +23.1 73 +38 +38 очень
душно
1007.6 981.6 0.0
07 21.08 СЗ 3 2200 м сильн. дождь н/о +25.2 +24.7 97 +35 +35 очень
душно
1008.4 982.1
08 21.08 СЗ 1 11 км в посл. час дождь н/о +25.8 +24.9 95 +37 +37 очень
душно
1009.2 982.9
09 21.08 С 1 10 км слаб. дождь н/о +25.1 +24.6 97 +35 +35 очень
душно
1009.0 982.7
10 21.08 СЗ 1 8000 м слаб. дождь н/о +25.0 +24.5 97 +35 +35 очень
душно
1009.2 982.9
11 21.08 СЗ 1 4400 м в посл. час дождь н/о +24.7 +24.7 100 +35 +35 очень
душно
1009.3 982.9
12 21.08 С 1 3600 м слаб. дождь н/о +24.3 +24.1 99 +33 +33 очень
душно
1009.4 983.0 +30.5 14
13 21.08 С 2 7000 м в посл. час дождь н/о +24.1 +23.9 99 +33 +33 очень
душно
1009.3 982.9
15 21.08 С 2 1000 м слаб. дождь н/о +23.2 +23.2 100 +33 +33 очень
душно
1009.5 983.0
16 21.08 С 2 1800 м в посл. час дождь н/о +22.8 +22.8 100 +31 +31 очень
душно
1009.3 982.7
17 21.08 С 2 4700 м дымка н/о +22.5 +22.5 100 +30 +30 очень
душно
1008.9 982.3
18 21.08 С 2 1700 м слаб. дождь н/о +22.2 +22.2 100 +30 +30 очень
душно
1009.2 982.6 0.5
19 21.08 СВ 1 11 км в посл. час дождь н/о +22.2 +22.2 100 +30 +30 очень
душно
1009.0 982.4
20 21.08 С 2 9000 м дымка н/о +22.4 +22.4 100 +30 +30 очень
душно
1009.5 982.9
22 21.08 В 1 15 км н/о +23.2 +22.9 98 +32 +32 очень
душно
1010.5 983.9
23 21.08 СЗ 1 20 км слаб. дождь н/о +23.8 +22.8 94 +31 +31 очень
душно
1011.1 984.6
00 22.08 С 1 9000 м слаб. дождь н/о +24.0 +23.2 95 +32 +32 очень
душно
1011.3 984.8 +22.2 0.5
01 22.08 С 1 20 км слаб. дождь н/о +24.7 +23.1 91 +33 +33 очень
душно
1011.0 984.6
02 22.08 СЗ 2 20 км в посл. час дождь н/о +25.5 +23.0 86 +34 +34 очень
душно
1010.2 983.9
04 22.08 З 1 20 км в посл. час дождь н/о +26.1 +23.2 84 +35 +35 очень
душно
1009.5 983.3
05 22.08 С 3 20 км н/о +26.2 +23.1 83 +35 +35 очень
душно
1009.2 983.0
06 22.08 С 2 20 км в посл. час дождь н/о +26.5 +23.0 81 +35 +35 очень
душно
1009.3 983.1 0.5
07 22.08 В 1 20 км слаб. дождь н/о +26.4 +23.1 82 +35 +35 очень
душно
1009.5 983.3
08 22.08 ЮВ 1 20 км слаб. дождь н/о +26.3 +23.0 82 +35 +35 очень
душно
1009.7 983.5
09 22.08 ЮЗ 1 20 км в посл. час дождь н/о +24.9 +23.0 89 +33 +33 очень
душно
1009.7 983.3
11 22.08 Ю 1 20 км н/о +23.6 +22.2 92 +31 +31 очень
душно
1009.6 983.1
12 22.08 Ю 2 20 км в посл. час дождь н/о +23.2 +22.4 95 +32 +32 очень
душно
1009.6 983.1 +26.8 0.5
13 22.08 ЮЗ 2 20 км н/о +22.8 +22.3 97 +31 +31 очень
душно
1009.1 982.5
14 22.08 ЮЗ 2 20 км н/о +22.9 +22.4 97 +31 +31 очень
душно
1008.5 982.0
15 22.08 ЮЗ 2 20 км н/о +22.9 +22.2 96 +31 +31 очень
душно
1008.1 981.6
16 22.08 Ю 2 20 км н/о +23.1 +22.4 96 +32 +32 очень
душно
1007.4 980.9
17 22.08 В 1 20 км н/о +23.2 +22.7 97 +32 +32 очень
душно
1006.1 979.7
18 22.08 З 1 19 км слаб. дождь н/о +23.0 +22.7 98 +32 +32 очень
душно
1005.8 979.4 0.0
19 22.08 ЮЗ 1 15 км в посл. час дождь н/о +22.8 +22.6 99 +31 +31 очень
душно
1005.0 978.6
20 22.08 З 1 9000 м в посл. час дождь н/о +22.8 +22.8 100 +31 +31 очень
душно
1005.3 978.8
21 22.08 Ю 1 6000 м слаб. дождь н/о +22.9 +22.9 100 +32 +32 очень
душно
1005.3 978.9
22 22.08 З 1 4700 м слаб. дождь н/о +22.8 +22.8 100 +31 +31 очень
душно
1005.9 979.4
23 22.08 штиль 0 4300 м слаб. дождь н/о +22.9 +22.9 100 +32 +32 очень
душно
1006.2 979.7
00 23.08 штиль 0 6000 м слаб. дождь н/о +23.0 +22.8 99 +32 +32 очень
душно
1006.3 979.8 +22.7 4
01 23.08 Ю 2 10 км слаб. дождь н/о +23.5 +23.2 98 +31 +31 очень
душно
1006.6 980.2
02 23.08 Ю 2 20 км слаб. дождь н/о +24.4 +23.7 96 +33 +33 очень
душно
1005.6 979.3
03 23.08 З 1 20 км в посл. час дождь н/о +24.7 +22.4 87 +32 +32 очень
душно
1005.2 978.9
04 23.08 З 1 20 км н/о +25.6 +23.7 89 +35 +35 очень
душно
1004.9 978.7
05 23.08 З 2 20 км н/о +26.0 +23.9 88 +36 +36 очень
душно
1005.0 978.9
06 23.08 З 2 20 км в посл. час дождь н/о +26.4 +23.9 86 +36 +36 очень
душно
1004.6 978.5 2
07 23.08 З 2 20 км слаб. дождь н/о +26.6 +24.1 86 +37 +37 очень
душно
1004.5 978.4
08 23.08 З 2 20 км в посл. час дождь н/о +26.4 +23.5 84 +36 +36 очень
душно
1004.6 978.5
09 23.08 Ю 2 20 км {дождь} н/о +25.2 +23.3 89 +34 +34 очень
душно
1004.9 978.7
10 23.08 ЮЗ 2 20 км в посл. час дождь н/о +24.4 +22.3 88 +32 +32 очень
душно
1005.8 979.5
11 23.08 ЮЗ 1 20 км слаб. дождь н/о +23.8 +22.1 90 +31 +31 очень
душно
1006.5 980.1
13 23.08 З 1 20 км слаб. дождь н/о +23.1 +21.9 93 +31 +31 очень
душно
1007.3 980.8
14 23.08 З 1 20 км в посл. час дождь н/о +22.5 +21.8 96 +30 +30 очень
душно
1006.9 980.4
15 23.08 ЮЗ 2 20 км слаб. дождь н/о +22.5 +21.5 94 +30 +30 очень
душно
1007.0 980.5
16 23.08 ЮЗ 1 9000 м слаб. дождь н/о +22.0 +21.8 99 +29 +29 очень
душно
1007.5 980.9
17 23.08 З 1 13 км слаб. дождь н/о +21.7 +21.4 98 +28 +28 душно 1007.7 981.1
18 23.08 Ю 2 18 км в посл. час дождь н/о +21.5 +21.2 98 +27 +27 душно 1007.6 981.0 1
19 23.08 Ю 1 14 км в посл. час дождь н/о +21.2 +21.2 100 +27 +27 душно 1007.9 981.2
20 23.08 З 1 12 км н/о +20.9 +20.9 100 +27 +27 душно 1008.3 981.6
21 23.08 З 1 16 км {дождь} н/о +20.6 +20.6 100 +27 +27 душно 1008.9 982.1
22 23.08 Ю 1 18 км н/о +21.7 +20.7 94 +28 +28 душно 1009.1 982.4
23 23.08 В 1 18 км н/о +24.1 +21.4 85 +31 +31 очень
душно
1008.8 982.4
00 24.08 В 1 20 км {дождь} н/о +26.0 +20.8 73 +33 +33 очень
душно
1008.1 981.9 +20.5 1
02 24.08 С 3 20 км н/о +30.0 +21.9 62 +39 +39 очень
душно
1006.9 981.1
03 24.08 В 2 20 км н/о +29.7 +20.6 58 +37 +37 очень
душно
1006.6 980.8
04 24.08 В 3 20 км н/о +29.9 +21.8 62 +38 +38 очень
душно
1006.2 980.4
05 24.08 ЮВ 3 20 км н/о +30.4 +19.8 53 +37 +37 очень
душно
1005.6 979.8
06 24.08 ЮВ 3 20 км н/о +30.5 +19.9 53 +37 +37 очень
душно
1005.4 979.7
08 24.08 ЮВ 2 20 км н/о +29.0 +20.7 61 +36 +36 очень
душно
1006.4 980.5
09 24.08 ЮЗ 2 20 км н/о +27.5 +22.0 72 +36 +36 очень
душно
1006.9 980.9
10 24.08 С 2 20 км н/о +26.2 +22.3 79 +34 +34 очень
душно
1008.0 981.8
11 24.08 ЮЗ 2 20 км н/о +25.1 +22.0 83 +32 +32 очень
душно
1008.7 982.4
12 24.08 З 2 19 км н/о +24.4 +21.9 86 +31 +31 очень
душно
1009.1 982.7 +31.3
13 24.08 ЮЗ 2 17 км н/о +23.8 +21.9 89 +31 +31 очень
душно
1009.0 982.5
14 24.08 ЮЗ 2 16 км н/о +23.7 +21.8 89 +30 +30 очень
душно
1009.2 982.7
15 24.08 Ю 1 15 км в посл. час дождь н/о +23.4 +21.9 91 +32 +32 очень
душно
1009.2 982.7
16 24.08 З 1 12 км слаб. дождь н/о +23.1 +21.9 93 +31 +31 очень
душно
1008.8 982.3
18 24.08 Ю 2 14 км в посл. час дождь н/о +22.0 +20.1 89 +28 +28 душно 1009.6 983.0 0.0
19 24.08 ЮЗ 1 12 км н/о +21.3 +20.1 93 +26 +26 душно 1009.9 983.2
20 24.08 З 1 7000 м дымка н/о +21.1 +20.3 95 +26 +26 душно 1010.5 983.7
21 24.08 СЗ 1 13 км н/о +20.9 +19.9 94 +27 +27 душно 1010.9 984.1
22 24.08 С 1 8000 м дымка н/о +21.7 +20.4 92 +27 +27 душно 1010.3 983.6
23 24.08 СВ 1 19 км н/о +23.7 +20.3 81 +29 +29 душно 1010.4 983.9
00 25.08 СВ 1 19 км н/о +25.6 +20.4 73 +32 +32 очень
душно
1010.1 983.8 +20.8 0.0
01 25.08 В 2 20 км н/о +26.9 +19.5 64 +33 +33 очень
душно
1009.7 983.5
02 25.08 С 2 20 км н/о +28.3 +17.8 53 +33 +33 очень
душно
1008.9 982.9
03 25.08 С 2 20 км н/о +29.2 +16.4 46 +33 +33 очень
душно
1008.5 982.6
04 25.08 Ю 4 20 км н/о +29.8 +19.5 54 +36 +36 очень
душно
1007.9 982.0
05 25.08 В 2 20 км н/о +30.0 +17.5 47 +34 +34 очень
душно
1007.6 981.8
07 25.08 В 3 20 км н/о +28.8 +18.9 55 +34 +34 очень
душно
1007.7 981.7
08 25.08 В 2 20 км н/о +28.3 +18.7 56 +33 +33 очень
душно
1008.3 982.3
09 25.08 З 1 20 км н/о +26.0 +20.3 71 +32 +32 очень
душно
1008.7 982.5
10 25.08 Ю 2 19 км н/о +25.0 +20.7 77 +31 +31 очень
душно
1009.6 983.2
11 25.08 Ю 2 18 км н/о +24.3 +20.6 80 +30 +30 очень
душно
1010.1 983.7
12 25.08 Ю 2 16 км н/о +23.8 +20.7 83 +30 +30 очень
душно
1011.1 984.6 +30.6
13 25.08 Ю 2 16 км н/о +23.3 +20.6 85 +31 +31 очень
душно
1011.6 985.0
14 25.08 З 1 13 км н/о +22.4 +20.9 91 +29 +29 очень
душно
1011.7 985.0
15 25.08 ЮЗ 2 13 км н/о +22.6 +20.9 90 +30 +30 очень
душно
1012.2 985.5
17 25.08 ЮЗ 1 16 км н/о +21.7 +20.2 91 +27 +27 душно 1012.1 985.4
18 25.08 ЮЗ 1 16 км н/о +21.7 +20.2 91 +27 +27 душно 1012.2 985.5
20 25.08 ЮЗ 1 14 км в посл. час дождь н/о +21.3 +20.3 94 +26 +26 душно 1012.9 986.1
21 25.08 штиль 0 12 км {дождь} н/о +21.2 +20.5 96 +26 +26 душно 1013.4 986.6

 

Местоположение метеостанции Чичибу (Япония): широта 35.98 долгота 139.06 высота над уровнем моря 234 м.

В архиве по умолчанию представлена погода в Чичибу за последнюю неделю. Архивные данные за месяц целиком и за предыдущие месяцы, начиная с января 2011 года, Вы можете получить, выбрав интересующий диапазон дат из раскрывающегося списка и нажав кнопку "Ввод!".


*Определитесь, кто Вы:
робот инопланетянин человек

Внимание! Время в таблицах - всемирное. Для получения местного времени необходимо прибавить поправку, которая равна 9 ч.

Смотрите также архив погоды в соседних городах и на ближайших метеорологических станциях:

Погода в Кумугае (Япония) (34 км)
Погода в Маебаши (Япония) (47 км)
Погода в Кофу (Япония) (57 км)
Погода на Озере Кавагучи (Япония) (60 км)
Погода в Каруидзаве (Япония) (62 км)
Погода в Токио (Япония) (71 км)
Погода на Фудзияме (Япония) (74 км)
Погода в Иокогаме (Япония) (81 км)
Погода в Суве (Япония) (86 км)
Погода в Никко (Япония) (92 км)

Пояснения к столбцам:

Ветер - указаны скорость ветра в м/с - средняя за 10 мин, порывы в срок и между сроками (в фигурных скобках) и направление, откуда дует ветер: С - северный, СВ - северо-восточный, В - восточный, ЮВ - юго-восточный, Ю - южный, ЮЗ - юго-западный, З - западный, СЗ - северо-западный.
Видимость - горизонтальная дальность видимости в метрах или километрах. При видимости от 1 до 10 км при отсутствии осадков обычно наблюдается дымка, при ухудшении видимости до 1 км и менее - туман. В сухую погоду видимость может ухудшаться дымом, пылью или мглою.
Явления - указаны атмосферные явления, наблюдавшиеся в срок или в последний час перед сроком; фигурными скобками обозначены явления, наблюдавшиеся между сроками (за 1-3 часа до срока); квадратными скобками обозначены град или гололедные отложения с указанием их диаметра в мм.
Облачность - указаны через наклонную черту общая и нижняя облачность в баллах и высота нижней границы облаков в метрах; квадратными скобками обозначены формы облаков: Ci - перистые, Cs - перисто-слоистые, Cc - перисто-кучевые, Ac - высококучевые, As - высокослоистые, Sc - слоисто-кучевые, Ns - слоисто-дождевые, Cu - кучевые, Cb - кучево-дождевые. Подробнее классификацию облаков см. в Атласе облаков (PDF).
T - Температура воздуха - температура, измеренная на высоте 2 м над землей.
Td - Температура точки росы - температура, при понижении до которой содержащийся в воздухе водяной пар достигнет насыщения.
f - Относительная влажность воздуха - влажноcть воздуха, измеренная на высоте 2 м над землей.
Te - Эффективная температура - температура, которую ощущает одетый по сезону человек в тени. Характеристика душности погоды. При расчете учитывается влияние влажности воздуха и скорости ветра на теплоощущения человека.
Tes - Эффективная температура на солнце - температура, которую ощущает человек, с поправкой на солнечный нагрев. Характеристика знойности погоды. Зависит от высоты солнца над горизонтом, облачности и скорости ветра. Ночью, в пасмурную погоду, а также при ветре 12 м/с и более поправка равна нулю.
P - Атмосферное давление - приведенное к уровню моря атмосферное давление.
Po - Атмосферное давление - измеренное на уровне метеостанции атмосферное давление.
Tmin - Минимальная температура - минимум температуры воздуха на высоте 2 м над землей.
Tmax - Максимальная температура - максимум температуры воздуха на высоте 2 м над землей.
R - Количество осадков - Количество выпавших осадков за период времени, мм. При наведении курсора мыши на число - период времени, за который выпало указанное количество осадков.
R24 - Количество осадков - Количество выпавших осадков за 24 часа, мм.
S - Снежный покров - Высота снежного покрова, см. При наведении курсора мыши на число - состояние снежного покрова и степень покрытия местности в баллах.